N626PC RPLS-RPUA

Flight info

Callsign N626PC
Flight time 1h 5m
Altitude 8500
Route VFR
Aircraft AEST/L-SDF/C

Departure

Time 2026-05-08 00:05
Airport Danilo Atienza Air Base (RPLS)

Arrival

Time 2026-05-08 01:10
Airport Pamalican Airstrip (RPUA)
Time Latitude Longitude Altitude Speed Heading
2026-05-07 23:54 14.49164 120.89703 16 ft 0 kts 324°
2026-05-08 00:02 14.49168 120.89701 19 ft 1 kts 323°
2026-05-08 00:02 14.49179 120.89683 19 ft 7 kts 270°
2026-05-08 00:02 14.49158 120.89618 19 ft 10 kts 283°
2026-05-08 00:03 14.49207 120.89592 20 ft 7 kts 47°
2026-05-08 00:03 14.49209 120.89596 20 ft 0 kts 68°
2026-05-08 00:04 14.49303 120.89837 20 ft 77 kts 68°
2026-05-08 00:04 14.49561 120.90479 85 ft 108 kts 68°
2026-05-08 00:04 14.49867 120.91255 345 ft 129 kts 68°
2026-05-08 00:05 14.50366 120.92081 617 ft 144 kts 39°
2026-05-08 00:05 14.51343 120.92368 924 ft 157 kts 353°
2026-05-08 00:05 14.52349 120.91940 1189 ft 163 kts 327°
2026-05-08 00:05 14.53165 120.91086 1382 ft 173 kts 303°
2026-05-08 00:06 14.53560 120.89885 1485 ft 184 kts 277°
2026-05-08 00:06 14.53457 120.88542 1531 ft 192 kts 256°
2026-05-08 00:06 14.52954 120.87242 1517 ft 197 kts 245°
2026-05-08 00:06 14.52362 120.85959 1550 ft 199 kts 245°
2026-05-08 00:07 14.51727 120.84588 1629 ft 197 kts 245°
2026-05-08 00:07 14.51199 120.83397 1738 ft 195 kts 246°
2026-05-08 00:07 14.50677 120.82116 1880 ft 193 kts 249°
2026-05-08 00:07 14.50200 120.80825 2008 ft 192 kts 248°
2026-05-08 00:08 14.49665 120.79563 2109 ft 193 kts 245°
2026-05-08 00:08 14.49078 120.78332 2264 ft 189 kts 243°
2026-05-08 00:08 14.48480 120.77129 2387 ft 189 kts 241°
2026-05-08 00:08 14.47827 120.75942 2473 ft 191 kts 238°
2026-05-08 00:09 14.47116 120.74790 2624 ft 190 kts 236°
2026-05-08 00:09 14.46381 120.73642 2624 ft 198 kts 235°
2026-05-08 00:09 14.45627 120.72425 2676 ft 208 kts 236°
2026-05-08 00:09 14.44855 120.71123 2635 ft 217 kts 236°
2026-05-08 00:10 14.44045 120.69768 2623 ft 225 kts 237°
2026-05-08 00:10 14.43211 120.68382 2572 ft 228 kts 236°
2026-05-08 00:10 14.42381 120.67003 2574 ft 223 kts 236°
2026-05-08 00:10 14.41540 120.65667 2593 ft 221 kts 234°
2026-05-08 00:11 14.40640 120.64383 2593 ft 220 kts 227°
2026-05-08 00:11 14.39555 120.63282 2604 ft 220 kts 216°
2026-05-08 00:11 14.38313 120.62371 2577 ft 218 kts 207°
2026-05-08 00:11 14.36992 120.61621 2599 ft 214 kts 201°
2026-05-08 00:12 14.35646 120.60999 2621 ft 210 kts 197°
2026-05-08 00:12 14.34262 120.60504 2611 ft 211 kts 191°
2026-05-08 00:12 14.32851 120.60094 2600 ft 211 kts 189°
2026-05-08 00:12 14.31436 120.59725 2624 ft 209 kts 189°
2026-05-08 00:13 14.30025 120.59376 2651 ft 207 kts 188°
2026-05-08 00:13 14.28644 120.59023 2814 ft 203 kts 188°
2026-05-08 00:13 14.27279 120.58734 2983 ft 198 kts 184°
2026-05-08 00:13 14.25932 120.58500 3183 ft 193 kts 182°
2026-05-08 00:14 14.24613 120.58309 3395 ft 190 kts 181°
2026-05-08 00:14 14.23306 120.58111 3567 ft 190 kts 183°
2026-05-08 00:14 14.22029 120.57879 3742 ft 188 kts 183°
2026-05-08 00:14 14.20739 120.57659 3916 ft 188 kts 182°
2026-05-08 00:15 14.19443 120.57444 4085 ft 189 kts 182°
2026-05-08 00:15 14.18145 120.57245 4251 ft 188 kts 182°
2026-05-08 00:15 14.16855 120.57051 4417 ft 186 kts 182°
2026-05-08 00:15 14.15584 120.56862 4576 ft 183 kts 182°
2026-05-08 00:16 14.14326 120.56686 4726 ft 182 kts 181°
2026-05-08 00:16 14.13070 120.56502 4888 ft 182 kts 181°
2026-05-08 00:16 14.11818 120.56325 5055 ft 181 kts 181°
2026-05-08 00:16 14.10564 120.56151 5209 ft 182 kts 181°
2026-05-08 00:17 14.09309 120.55999 5366 ft 181 kts 180°
2026-05-08 00:17 14.08056 120.55876 5508 ft 181 kts 179°
2026-05-08 00:17 14.06800 120.55752 5649 ft 181 kts 179°
2026-05-08 00:17 14.05548 120.55631 5787 ft 180 kts 180°
2026-05-08 00:18 14.04301 120.55513 5941 ft 180 kts 179°
2026-05-08 00:18 14.03057 120.55398 6086 ft 179 kts 179°
2026-05-08 00:18 14.01815 120.55285 6216 ft 179 kts 179°
2026-05-08 00:18 14.00576 120.55173 6353 ft 179 kts 179°
2026-05-08 00:19 13.99336 120.55063 6464 ft 179 kts 179°
2026-05-08 00:19 13.98095 120.54955 6598 ft 179 kts 179°
2026-05-08 00:19 13.96852 120.54864 6714 ft 179 kts 179°
2026-05-08 00:19 13.95614 120.54809 6850 ft 178 kts 176°
2026-05-08 00:20 13.94380 120.54796 6986 ft 177 kts 175°
2026-05-08 00:20 13.93148 120.54789 7108 ft 177 kts 175°
2026-05-08 00:20 13.91917 120.54784 7235 ft 177 kts 175°
2026-05-08 00:20 13.90683 120.54777 7347 ft 178 kts 175°
2026-05-08 00:21 13.89462 120.54767 7453 ft 178 kts 175°
2026-05-08 00:21 13.88214 120.54759 7507 ft 182 kts 175°
2026-05-08 00:21 13.86931 120.54754 7523 ft 189 kts 175°
2026-05-08 00:21 13.85583 120.54744 7505 ft 198 kts 175°
2026-05-08 00:22 13.84188 120.54735 7500 ft 201 kts 176°
2026-05-08 00:22 13.82782 120.54735 7498 ft 204 kts 175°
2026-05-08 00:22 13.81357 120.54737 7501 ft 205 kts 175°
2026-05-08 00:22 13.79926 120.54734 7505 ft 206 kts 175°
2026-05-08 00:23 13.78483 120.54717 7503 ft 208 kts 176°
2026-05-08 00:23 13.77028 120.54695 7498 ft 209 kts 176°
2026-05-08 00:23 13.75569 120.54677 7504 ft 209 kts 176°
2026-05-08 00:23 13.74111 120.54657 7503 ft 210 kts 176°
2026-05-08 00:24 13.72651 120.54633 7507 ft 210 kts 176°
2026-05-08 00:24 13.71188 120.54607 7505 ft 210 kts 175°
2026-05-08 00:24 13.69720 120.54583 7503 ft 211 kts 176°
2026-05-08 00:24 13.68253 120.54562 7503 ft 211 kts 175°
2026-05-08 00:25 13.66789 120.54543 7506 ft 210 kts 176°
2026-05-08 00:25 13.65329 120.54523 7505 ft 210 kts 176°
2026-05-08 00:25 13.63865 120.54506 7506 ft 210 kts 176°
2026-05-08 00:25 13.62410 120.54485 7505 ft 209 kts 176°
2026-05-08 00:26 13.60962 120.54461 7499 ft 208 kts 176°
2026-05-08 00:26 13.59518 120.54435 7501 ft 207 kts 176°
2026-05-08 00:26 13.58077 120.54408 7500 ft 208 kts 176°
2026-05-08 00:26 13.56628 120.54386 7507 ft 209 kts 175°
2026-05-08 00:27 13.55192 120.54374 7510 ft 210 kts 176°
2026-05-08 00:27 13.53728 120.54388 7505 ft 211 kts 176°
2026-05-08 00:27 13.52258 120.54405 7503 ft 211 kts 176°
2026-05-08 00:27 13.50787 120.54423 7504 ft 212 kts 176°
2026-05-08 00:28 13.49315 120.54440 7511 ft 212 kts 176°
2026-05-08 00:28 13.47830 120.54456 7508 ft 214 kts 176°
2026-05-08 00:28 13.46343 120.54478 7495 ft 214 kts 176°
2026-05-08 00:28 13.44846 120.54503 7485 ft 214 kts 176°
2026-05-08 00:29 13.43363 120.54523 7500 ft 212 kts 176°
2026-05-08 00:29 13.41891 120.54530 7511 ft 211 kts 176°
2026-05-08 00:29 13.40418 120.54532 7503 ft 212 kts 176°
2026-05-08 00:29 13.38937 120.54618 7499 ft 214 kts 167°
2026-05-08 00:30 13.37518 120.55031 7492 ft 210 kts 156°
2026-05-08 00:30 13.36169 120.55592 7500 ft 208 kts 154°
2026-05-08 00:30 13.34839 120.56172 7501 ft 207 kts 154°
2026-05-08 00:30 13.33516 120.56752 7504 ft 207 kts 154°
2026-05-08 00:31 13.32187 120.57332 7502 ft 207 kts 154°
2026-05-08 00:31 13.30863 120.57911 7500 ft 207 kts 154°
2026-05-08 00:31 13.29538 120.58489 7493 ft 207 kts 154°
2026-05-08 00:31 13.28212 120.59069 7493 ft 207 kts 154°
2026-05-08 00:32 13.26888 120.59647 7497 ft 207 kts 154°
2026-05-08 00:32 13.25579 120.60219 7497 ft 207 kts 154°
2026-05-08 00:32 13.24250 120.60799 7496 ft 208 kts 154°
2026-05-08 00:32 13.22921 120.61377 7496 ft 208 kts 154°
2026-05-08 00:33 13.21590 120.61956 7498 ft 207 kts 154°
2026-05-08 00:33 13.20260 120.62535 7495 ft 207 kts 154°
2026-05-08 00:33 13.18934 120.63112 7505 ft 207 kts 154°
2026-05-08 00:33 13.17601 120.63692 7508 ft 207 kts 154°
2026-05-08 00:34 13.16274 120.64270 7500 ft 207 kts 154°
2026-05-08 00:34 13.14946 120.64847 7500 ft 207 kts 154°
2026-05-08 00:34 13.13618 120.65424 7500 ft 207 kts 154°
2026-05-08 00:34 13.12288 120.66003 7498 ft 207 kts 154°
2026-05-08 00:35 13.10961 120.66579 7500 ft 207 kts 154°
2026-05-08 00:35 13.09635 120.67155 7502 ft 207 kts 154°
2026-05-08 00:35 13.08308 120.67730 7501 ft 207 kts 154°
2026-05-08 00:35 13.06982 120.68306 7503 ft 207 kts 154°
2026-05-08 00:36 13.05657 120.68882 7504 ft 207 kts 154°
2026-05-08 00:36 13.04328 120.69460 7499 ft 207 kts 154°
2026-05-08 00:36 13.03001 120.70036 7502 ft 207 kts 154°
2026-05-08 00:36 13.01675 120.70612 7503 ft 207 kts 154°
2026-05-08 00:37 13.00348 120.71188 7501 ft 207 kts 154°
2026-05-08 00:37 12.99036 120.71757 7500 ft 207 kts 154°
2026-05-08 00:37 12.97710 120.72332 7500 ft 207 kts 154°
2026-05-08 00:38 12.95053 120.73485 7503 ft 207 kts 154°
2026-05-08 00:38 12.93725 120.74061 7514 ft 207 kts 154°
2026-05-08 00:38 12.92395 120.74638 7514 ft 207 kts 154°
2026-05-08 00:38 12.91066 120.75212 7507 ft 208 kts 154°
2026-05-08 00:39 12.89731 120.75782 7503 ft 208 kts 154°
2026-05-08 00:39 12.88398 120.76344 7506 ft 207 kts 154°
2026-05-08 00:39 12.87063 120.76905 7507 ft 207 kts 154°
2026-05-08 00:39 12.85730 120.77465 7506 ft 207 kts 154°
2026-05-08 00:40 12.84397 120.78025 7510 ft 208 kts 154°
2026-05-08 00:40 12.83058 120.78587 7511 ft 208 kts 153°
2026-05-08 00:40 12.81715 120.79150 7504 ft 208 kts 154°
2026-05-08 00:40 12.80378 120.79712 7510 ft 207 kts 154°
2026-05-08 00:41 12.79039 120.80273 7509 ft 208 kts 154°
2026-05-08 00:41 12.77703 120.80831 7506 ft 207 kts 154°
2026-05-08 00:41 12.76369 120.81388 7496 ft 207 kts 154°
2026-05-08 00:41 12.75036 120.81944 7502 ft 207 kts 154°
2026-05-08 00:42 12.73716 120.82496 7498 ft 207 kts 154°
2026-05-08 00:42 12.72380 120.83054 7500 ft 207 kts 154°
2026-05-08 00:42 12.71046 120.83613 7500 ft 207 kts 154°
2026-05-08 00:42 12.69712 120.84172 7500 ft 207 kts 154°
2026-05-08 00:43 12.68379 120.84730 7500 ft 207 kts 154°
2026-05-08 00:43 12.67028 120.85296 7500 ft 207 kts 154°
2026-05-08 00:43 12.65694 120.85854 7500 ft 207 kts 154°
2026-05-08 00:43 12.64356 120.86414 7492 ft 207 kts 154°
2026-05-08 00:44 12.63023 120.86972 7494 ft 208 kts 154°
2026-05-08 00:44 12.61701 120.87525 7494 ft 208 kts 154°
2026-05-08 00:44 12.60346 120.88091 7494 ft 208 kts 154°
2026-05-08 00:44 12.59009 120.88649 7493 ft 207 kts 154°
2026-05-08 00:45 12.57689 120.89200 7497 ft 207 kts 154°
2026-05-08 00:45 12.56360 120.89747 7495 ft 205 kts 154°
2026-05-08 00:45 12.55034 120.90290 7494 ft 205 kts 154°
2026-05-08 00:45 12.53709 120.90833 7494 ft 205 kts 154°
2026-05-08 00:46 12.52384 120.91375 7494 ft 205 kts 154°
2026-05-08 00:46 12.51044 120.91877 7475 ft 205 kts 163°
2026-05-08 00:46 12.50083 120.91977 7490 ft 206 kts 175°
2026-05-08 00:46 12.48642 120.91838 7496 ft 210 kts 184°
2026-05-08 00:47 12.46714 120.91520 7491 ft 213 kts 185°
2026-05-08 00:47 12.45727 120.91353 7473 ft 214 kts 185°
2026-05-08 00:47 12.44255 120.91105 7479 ft 214 kts 185°
2026-05-08 00:47 12.42307 120.90775 7489 ft 214 kts 185°
2026-05-08 00:48 12.41334 120.90609 7490 ft 215 kts 185°
2026-05-08 00:48 12.39861 120.90358 7489 ft 215 kts 185°
2026-05-08 00:48 12.38382 120.90111 7486 ft 215 kts 184°
2026-05-08 00:48 12.36900 120.89903 7472 ft 215 kts 183°
2026-05-08 00:49 12.35407 120.89704 7429 ft 217 kts 183°
2026-05-08 00:49 12.33903 120.89503 7396 ft 218 kts 183°
2026-05-08 00:49 12.32398 120.89302 7369 ft 218 kts 183°
2026-05-08 00:49 12.30889 120.89100 7328 ft 219 kts 183°
2026-05-08 00:50 12.29376 120.88897 7273 ft 220 kts 183°
2026-05-08 00:50 12.27853 120.88692 7218 ft 221 kts 183°
2026-05-08 00:50 12.26329 120.88486 7168 ft 221 kts 183°
2026-05-08 00:50 12.24807 120.88262 7116 ft 221 kts 183°
2026-05-08 00:51 12.23274 120.88026 7049 ft 223 kts 183°
2026-05-08 00:51 12.21742 120.87784 6991 ft 223 kts 183°
2026-05-08 00:51 12.20204 120.87543 6939 ft 224 kts 183°
2026-05-08 00:51 12.18667 120.87298 6891 ft 223 kts 183°
2026-05-08 00:52 12.17132 120.87055 6845 ft 224 kts 183°
2026-05-08 00:52 12.15610 120.86799 6785 ft 225 kts 185°
2026-05-08 00:52 12.14073 120.86483 6729 ft 225 kts 186°
2026-05-08 00:52 12.12537 120.86161 6675 ft 226 kts 186°
2026-05-08 00:53 12.10995 120.85838 6630 ft 226 kts 186°
2026-05-08 00:53 12.09460 120.85512 6589 ft 225 kts 186°
2026-05-08 00:53 12.07925 120.85188 6546 ft 225 kts 186°
2026-05-08 00:53 12.06394 120.84866 6501 ft 225 kts 186°
2026-05-08 00:54 12.04858 120.84543 6454 ft 225 kts 186°
2026-05-08 00:54 12.03331 120.84219 6455 ft 222 kts 186°
2026-05-08 00:54 12.01823 120.83906 6456 ft 220 kts 186°
2026-05-08 00:54 12.00330 120.83597 6460 ft 218 kts 186°
2026-05-08 00:55 11.98850 120.83290 6457 ft 216 kts 186°
2026-05-08 00:55 11.97382 120.82979 6462 ft 216 kts 186°
2026-05-08 00:55 11.95914 120.82662 6465 ft 215 kts 186°
2026-05-08 00:55 11.94452 120.82339 6463 ft 214 kts 186°
2026-05-08 00:56 11.92995 120.82015 6467 ft 214 kts 186°
2026-05-08 00:56 11.91540 120.81702 6462 ft 212 kts 186°
2026-05-08 00:56 11.90115 120.81402 6469 ft 212 kts 186°
2026-05-08 00:56 11.88673 120.81094 6472 ft 212 kts 186°
2026-05-08 00:57 11.87229 120.80788 6463 ft 213 kts 186°
2026-05-08 00:57 11.85773 120.80499 6469 ft 213 kts 185°
2026-05-08 00:57 11.84324 120.80231 6472 ft 210 kts 185°
2026-05-08 00:57 11.82893 120.79947 6404 ft 210 kts 184°
2026-05-08 00:58 11.81449 120.79711 6278 ft 211 kts 182°
2026-05-08 00:58 11.80008 120.79478 6206 ft 208 kts 183°
2026-05-08 00:58 11.78581 120.79245 6131 ft 207 kts 182°
2026-05-08 00:58 11.77154 120.79013 6005 ft 209 kts 182°
2026-05-08 00:59 11.75713 120.78782 5880 ft 210 kts 182°
2026-05-08 00:59 11.74275 120.78572 5807 ft 208 kts 181°
2026-05-08 00:59 11.72857 120.78371 5708 ft 205 kts 181°
2026-05-08 00:59 11.71442 120.78187 5544 ft 205 kts 181°
2026-05-08 01:00 11.70031 120.78016 5440 ft 203 kts 180°
2026-05-08 01:00 11.68635 120.77841 5329 ft 202 kts 181°
2026-05-08 01:00 11.67242 120.77649 5193 ft 203 kts 181°
2026-05-08 01:00 11.65835 120.77473 5082 ft 203 kts 179°
2026-05-08 01:01 11.64433 120.77373 4992 ft 200 kts 176°
2026-05-08 01:01 11.63053 120.77307 4860 ft 198 kts 175°
2026-05-08 01:01 11.61674 120.77264 4684 ft 199 kts 175°
2026-05-08 01:01 11.60293 120.77216 4533 ft 198 kts 175°
2026-05-08 01:02 11.58920 120.77153 4393 ft 197 kts 176°
2026-05-08 01:02 11.57545 120.77074 4242 ft 199 kts 176°
2026-05-08 01:02 11.56170 120.77014 4086 ft 196 kts 176°
2026-05-08 01:02 11.54805 120.76947 3913 ft 196 kts 177°
2026-05-08 01:03 11.53463 120.76862 3729 ft 196 kts 177°
2026-05-08 01:03 11.52107 120.76768 3543 ft 195 kts 177°
2026-05-08 01:03 11.50761 120.76658 3376 ft 194 kts 179°
2026-05-08 01:03 11.49415 120.76502 3210 ft 195 kts 179°
2026-05-08 01:04 11.48074 120.76388 3036 ft 193 kts 177°
2026-05-08 01:04 11.46735 120.76355 2867 ft 194 kts 171°
2026-05-08 01:04 11.45396 120.76458 2748 ft 190 kts 168°
2026-05-08 01:04 11.44097 120.76571 2699 ft 186 kts 167°
2026-05-08 01:05 11.42832 120.76703 2540 ft 180 kts 166°
2026-05-08 01:05 11.41608 120.76796 2385 ft 172 kts 173°
2026-05-08 01:05 11.40440 120.76598 2247 ft 172 kts 189°
2026-05-08 01:05 11.39326 120.76087 2035 ft 179 kts 201°
2026-05-08 01:06 11.38442 120.75212 1898 ft 181 kts 237°
2026-05-08 01:06 11.38178 120.73954 1763 ft 187 kts 275°
2026-05-08 01:06 11.38597 120.72730 1652 ft 179 kts 310°
2026-05-08 01:06 11.39370 120.71812 1591 ft 160 kts 319°
2026-05-08 01:07 11.40023 120.71021 1391 ft 137 kts 320°
2026-05-08 01:07 11.40588 120.70251 1098 ft 134 kts 302°
2026-05-08 01:07 11.40543 120.69318 864 ft 141 kts 243°
2026-05-08 01:07 11.39751 120.68766 775 ft 142 kts 187°
2026-05-08 01:08 11.38856 120.68943 652 ft 125 kts 129°
2026-05-08 01:08 11.38380 120.69559 581 ft 102 kts 112°
2026-05-08 01:08 11.38022 120.70162 503 ft 99 kts 115°
2026-05-08 01:08 11.37576 120.70696 430 ft 100 kts 127°
2026-05-08 01:09 11.37137 120.71237 325 ft 97 kts 122°
2026-05-08 01:09 11.36843 120.71587 238 ft 99 kts 121°
2026-05-08 01:09 11.36266 120.72293 48 ft 92 kts 121°
2026-05-08 01:09 11.35920 120.72711 6 ft 59 kts 131°
2026-05-08 01:10 11.35735 120.72934 8 ft 16 kts 123°
2026-05-08 01:10 11.35680 120.72960 9 ft 11 kts 213°
2026-05-08 01:10 11.35627 120.72946 11 ft 4 kts 142°
2026-05-08 01:10 11.35601 120.72973 11 ft 2 kts 131°